This demonstration page uses our WeatherBlox Daily Observations layout. Learn more.

Left ArrowRight Arrow

Hourly Observations for November 30, 2015

Temp ( °F °C ) Dew Point ( °F °C ) Humidity (%) Winds ( mph kmh ) Pressure ( in mb ) Visibility ( mi km ) Precip ( " mm )
12:53 am 00:53 Clear 4 -15.6 2 -16.7 91 91 WSW 6 9 30.17 1022 10 16 N/A
1:53 am 01:53 Clear 2 -16.7 -1 -18.3 88 88 W 5 7 30.16 1022 10 16 N/A
2:53 am 02:53 Clear 1 -17.2 -2 -18.9 87 87 W 7 11 30.17 1022 10 16 N/A
3:53 am 03:53 Clear 2 -16.7 -1 -18.3 88 88 WSW 7 11 30.17 1022 10 16 N/A
4:53 am 04:53 Clear 1 -17.2 -2 -18.9 87 87 WSW 6 9 30.18 1022 10 16 N/A
5:53 am 05:53 Clear N/A -3 -19.4 87 87 WSW 7 11 30.19 1022 10 16 N/A
6:53 am 06:53 Clear 1 -17.2 -2 -18.9 87 87 W 5 7 30.19 1022 10 16 N/A
7:53 am 07:53 Sunny N/A -3 -19.4 87 87 WSW 7 11 30.19 1023 10 16 N/A
8:53 am 08:53 Sunny 2 -16.7 -1 -18.3 88 88 WSW 5 7 30.20 1023 10 16 N/A
9:53 am 09:53 Sunny 9 -12.8 6 -14.4 88 88 W 6 9 30.19 1022 10 16 N/A
10:53 am 10:53 Sunny 16 -8.9 10 -12.2 77 77 SW 9 15 30.16 1022 10 16 N/A
11:53 am 11:53 Sunny 20 -6.7 12 -11.1 71 71 WSW 12 19 30.14 1021 10 16 N/A
12:53 pm 12:53 Sunny 24 -4.4 14 -10 65 65 WSW 13 20 30.11 1020 10 16 N/A
1:53 pm 13:53 Sunny 24 -4.4 14 -10 65 65 WSW 14 22 30.10 1019 10 16 N/A
2:53 pm 14:53 Sunny 25 -3.9 15 -9.4 66 66 W 8 13 30.09 1019 10 16 N/A
3:53 pm 15:53 Sunny 22 -5.6 13 -10.6 68 68 WNW 6 9 30.09 1019 10 16 N/A
4:53 pm 16:53 Clear 18 -7.8 11 -11.7 74 74 W 3 6 30.09 1019 10 16 N/A
5:53 pm 17:53 Clear 14 -10 9 -12.8 80 80 W 7 11 30.11 1020 10 16 N/A
6:53 pm 18:53 Clear 11 -11.7 7 -13.9 84 84 SW 7 11 30.10 1019 10 16 N/A
7:53 pm 19:53 Clear 10 -12.2 6 -14.4 84 84 W 3 6 30.11 1020 10 16 N/A
8:53 pm 20:53 Clear 9 -12.8 5 -15 84 84 WNW 5 7 30.10 1019 10 16 N/A
9:53 pm 21:53 Clear 7 -13.9 4 -15.6 87 87 WSW 6 9 30.09 1019 10 16 N/A
10:53 pm 22:53 Clear 4 -15.6 1 -17.2 88 88 WSW 7 11 30.09 1019 10 16 N/A
11:53 pm 23:53 Clear 11 -11.7 6 -14.4 81 81 W 12 19 30.05 1018 10 16 N/A

Powered by AerisWeather